Location: �clusier
(49.9361°N, 2.7869°E)
Time: 20:54:36
(UTC+00:00)

ERS-1 Rocket - Pass Details

Date: 16 June 2021
Orbit: 752 x 758 km, 98.4° (Epoch: 01 August)

Event Time Altitude Azimuth Distance (km) Brightness Sun altitude
Exits shadow 21:24:39 11° 169° (S) 2,244 4.8 -9.9°
Maximum altitude 21:29:35 79° 256° (WSW) 780 3.1 -10.4°
Drops below altitude 10° 21:34:40 10° 343° (NNW) 2,301 6.9 -10.8°
Sets 21:36:59 0° 345° (NNW) 3,231 7.9 -11.0°
